ARIANE 2 DEB, 27040

Orbit data source: Space-Track

ARIANE 2 DEB, 27040 is space debris in HEO originally from a launch on Fri, 27 Jan 1989 UTC launched from the French Guiana (FRGUI). Debris objects in space refer to the collection of defunct objects orbiting the Earth. Examples of debris include non-operational satellites, rocket bodies, and fragments generated from explosions, collisions, or faulty payload assembly.

Loading next visibility...
Identifier
27040, 1989-006V
Orbit
HEO
Country
Flag of FRFR
Related business
Manufacturer
EADS/LV
Mission
Spacecraft
Bus & Motor
Unknown
Mass
Unknown
Launch date (UTC)
1989-01-27 (37 years ago)
Launch vehicle
Unknown
Launch site
French Guiana (FRGUI)
Object type
Payload
Rocket body
Debris
Shape & HBR
Unknown shape, 1.1 m
Radar Cross Section
Medium (>0.1 m² and <1 m²)

Expand to show TLE details & history
Last TLE update: 5 months ago

TLE from 5 months ago
0 ARIANE 2 DEB
1 27040U 89006V   25286.56267605 -.00000018  00000-0 -30124-2 0  9999
2 27040   7.3186 161.5563 7058296 284.8221 330.8462  2.23775567197930
Epoch: 2025-10-13T13:30Z
TLE epoch observation values (Epoch: 2025-10-13T13:30:15.210Z)
Latitude
1.29039°
Longitude
106.77794°
Altitude
11,222.872 km
Speed
5.399 km/s
True Right ascension
22h 06m 49s
True Declination
1° 17' 14"
Sunlit
Object was in daylight at epoch
Visualization orbit readout
Latitude
Unknown
Longitude
Unknown
Altitude
Unknown
Speed
Unknown
Apparent Right ascension
Unknown
Apparent Declination
Unknown
Sunlit
N/A
Visualization observer readout
Local Sidereal Time
07:22:16
Azimuth
Unknown
Elevation
Unknown
Doppler factor
Unknown
Orbital elements
Apogee altitude
35,747.721 km
Perigee altitude
886.469 km
Semi-major axis
24,695.232 km
Eccentricity
0.70583
Inclination
7.3186°
RAAN
161.5563°
Arg. of periapsis
284.8221°
True anomaly
245.05764°
Mean anomaly
330.8462°
Eccentric anomaly
293.86192°
Mean motion
0.55927 °/min
Orbital period
643.69 mins
BSTAR
-0.0030124
Loading maneuver chart data...
Computing Atmospheric mass density...
Loading historical data...
Loading historical data...
Loading historical data...
Loading historical data...
Loading historical data...
Loading historical data...
Loading historical data...

Documentation

Showing up to 5 results
|